Weather History for KLEW - December, 2012

Change the Weather History Date:

Tuesday, December 11, 2012

  Actual Average Record
Temperature  
Mean Temperature 30 °F -  
Max Temperature 39 °F 36 °F 51 °F (2003)
Min Temperature 21 °F 19 °F 0 °F (2007)
Degree Days  
Heating Degree Days 35    
Moisture  
Dew Point 26 °F    
Average Humidity 79    
Maximum Humidity 93    
Minimum Humidity 52    
Precipitation  
Precipitation 0.00 in - - ()
Sea Level Pressure  
Sea Level Pressure 29.82 in    
Wind  
Wind Speed 2 mph (NW)    
Max Wind Speed 13 mph    
Max Gust Speed 17 mph    
Visibility 9 miles    
Events      
Averages and records for this station are not official NWS values.
T = Trace of Precipitation, MM = Missing Value Source: NWS Daily Summary

Daily Weather History Graph

Daily Weather History Graph

Search for Another Location

Airport or City:

Trip Planner

Search our weather history database for the weather conditions in past years. The results will help you decide how hot, cold, wet, or windy it might be!

Date:

Astronomy

Dec. 11, 2012 Rise Set
Actual Time 7:06 AM EST 4:02 PM EST
Civil Twilight 6:33 AM EST 4:35 PM EST
Nautical Twilight 5:56 AM EST 5:12 PM EST
Astronomical Twilight 5:21 AM EST 5:47 PM EST
Moon 4:55 AM EST (12/11) 2:40 PM EST (12/11)
Length of Visible Light 10h 02m
Length of Day
8h 56m
Waning Crescent, 4% of the Moon is Illuminated
Dec 11
Waning Crescent
Dec 13
New
Dec 20
First Quarter
Dec 28
Full
Jan 4
Last Quarter

Hourly Weather History & Observations

Time (EST) Temp. Windchill Dew Point Humidity Pressure Visibility Wind Dir Wind Speed Gust Speed Precip Events Conditions
12:15 AM 33.8 °F - 30.2 °F 87% 29.52 in 8.0 mi Calm Calm - N/A   Overcast
12:35 AM 32.0 °F - 30.2 °F 93% 29.52 in 5.0 mi Calm Calm - N/A   Overcast
12:55 AM 33.8 °F - 30.2 °F 87% 29.53 in 5.0 mi Calm Calm - N/A   Overcast
1:15 AM 33.8 °F - 30.2 °F 87% 29.54 in 5.0 mi Calm Calm - N/A   Overcast
1:35 AM 33.8 °F - 32.0 °F 93% 29.54 in 5.0 mi Calm Calm - N/A   Overcast
1:55 AM 33.8 °F - 30.2 °F 87% 29.56 in 5.0 mi Calm Calm - N/A   Overcast
2:15 AM 33.8 °F - 32.0 °F 93% 29.56 in 5.0 mi Calm Calm - N/A   Overcast
2:35 AM 33.8 °F 30.8 °F 32.0 °F 93% 29.57 in 8.0 mi South 3.5 mph - N/A   Overcast
2:55 AM 33.8 °F 29.6 °F 30.2 °F 87% 29.57 in 7.0 mi SSE 4.6 mph - N/A   Overcast
3:15 AM 33.8 °F - 32.0 °F 93% 29.58 in 10.0 mi Calm Calm - N/A   Overcast
3:35 AM 33.8 °F - 32.0 °F 93% 29.60 in 10.0 mi Calm Calm - N/A   Overcast
3:55 AM 33.8 °F - 30.2 °F 87% 29.61 in 8.0 mi Calm Calm - N/A   Overcast
4:15 AM 33.8 °F - 30.2 °F 87% 29.62 in 7.0 mi Calm Calm - N/A   Mostly Cloudy
4:35 AM 33.8 °F - 30.2 °F 87% 29.62 in 7.0 mi Calm Calm - N/A   Overcast
4:55 AM 33.8 °F - 30.2 °F 87% 29.63 in 9.0 mi Calm Calm - N/A   Overcast
5:15 AM 33.8 °F - 30.2 °F 87% 29.63 in 10.0 mi Calm Calm - N/A   Overcast
5:35 AM 33.8 °F - 32.0 °F 93% 29.66 in 8.0 mi Calm Calm - N/A   Overcast
5:55 AM 33.8 °F - 30.2 °F 87% 29.68 in 10.0 mi Calm Calm - N/A   Overcast
6:15 AM 33.8 °F 29.6 °F 32.0 °F 93% 29.67 in 9.0 mi ESE 4.6 mph - N/A   Mostly Cloudy
6:35 AM 33.8 °F - 32.0 °F 93% 29.67 in 10.0 mi Calm Calm - N/A   Overcast
6:55 AM 33.8 °F - 32.0 °F 93% 29.68 in 8.0 mi Calm Calm - N/A   Overcast
7:15 AM 33.8 °F - 30.2 °F 87% 29.69 in 6.0 mi Calm Calm - N/A   Overcast
7:35 AM 33.8 °F - 30.2 °F 87% 29.70 in 7.0 mi Calm Calm - N/A   Overcast
7:55 AM 33.8 °F 27.7 °F 32.0 °F 93% 29.70 in 5.0 mi NNE 6.9 mph - N/A   Overcast
8:15 AM 33.8 °F - 32.0 °F 93% 29.72 in 5.0 mi Calm Calm - N/A   Overcast
8:56 AM 33.8 °F - 32.0 °F 93% 29.75 in 10.0 mi Calm Calm - N/A   Overcast
9:15 AM 35.6 °F 32.8 °F 33.8 °F 93% 29.76 in 10.0 mi NW 3.5 mph - N/A   Overcast
9:35 AM 35.6 °F - 32.0 °F 87% 29.78 in 10.0 mi Calm Calm - N/A   Overcast
9:55 AM 35.6 °F 29.9 °F 30.2 °F 81% 29.79 in 10.0 mi NW 6.9 mph - N/A   Overcast
10:15 AM 35.6 °F 29.9 °F 30.2 °F 81% 29.80 in 10.0 mi WNW 6.9 mph - N/A   Overcast
10:35 AM 35.6 °F 30.7 °F 30.2 °F 81% 29.81 in 10.0 mi WNW 5.8 mph - N/A   Overcast
10:55 AM 35.6 °F 31.7 °F 30.2 °F 81% 29.81 in 10.0 mi NW 4.6 mph - N/A   Mostly Cloudy
11:15 AM 37.4 °F 30.3 °F 32.0 °F 81% 29.81 in 10.0 mi NW 10.4 mph - N/A   Scattered Clouds
11:35 AM 37.4 °F 30.8 °F 30.2 °F 75% 29.81 in 10.0 mi NW 9.2 mph - N/A   Mostly Cloudy
11:55 AM 37.4 °F 32.1 °F 30.2 °F 75% 29.82 in 10.0 mi NW 6.9 mph - N/A   Overcast
12:15 PM 37.4 °F 32.1 °F 30.2 °F 75% 29.83 in 10.0 mi NW 6.9 mph - N/A   Overcast
12:35 PM 39.2 °F 33.6 °F 30.2 °F 70% 29.82 in 10.0 mi North 8.1 mph - N/A   Overcast
12:55 PM 39.2 °F 32.0 °F 26.6 °F 61% 29.82 in 10.0 mi NW 11.5 mph - N/A   Mostly Cloudy
1:15 PM 37.4 °F 29.8 °F 26.6 °F 65% 29.83 in 10.0 mi NNW 11.5 mph 17.3 mph N/A   Scattered Clouds
1:35 PM 37.4 °F 29.8 °F 24.8 °F 60% 29.84 in 10.0 mi NNW 11.5 mph - N/A   Partly Cloudy
2:15 PM 37.4 °F 29.3 °F 24.8 °F 60% 29.86 in 10.0 mi NNW 12.7 mph 16.1 mph N/A   Clear
2:35 PM 37.4 °F 30.3 °F 23.0 °F 56% 29.87 in 10.0 mi NW 10.4 mph - N/A   Clear
2:55 PM 37.4 °F 29.8 °F 21.2 °F 52% 29.88 in 10.0 mi NNW 11.5 mph - N/A   Clear
3:35 PM 35.6 °F 28.0 °F 21.2 °F 56% 29.91 in 10.0 mi NNW 10.4 mph - N/A   Clear
3:55 PM 35.6 °F 29.2 °F 21.2 °F 56% 29.91 in 10.0 mi NW 8.1 mph - N/A   Clear
4:15 PM 33.8 °F 28.6 °F 19.4 °F 56% 29.93 in 10.0 mi WNW 5.8 mph - N/A   Clear
4:55 PM 32.0 °F 28.7 °F 19.4 °F 60% 29.95 in 10.0 mi North 3.5 mph - N/A   Clear
5:15 PM 30.2 °F - 19.4 °F 64% 29.96 in 10.0 mi Calm Calm - N/A   Clear
5:35 PM 30.2 °F 25.4 °F 19.4 °F 64% 29.97 in 10.0 mi NNW 4.6 mph - N/A   Clear
5:55 PM 30.2 °F - 19.4 °F 64% 29.98 in 10.0 mi Calm Calm - N/A   Clear
6:15 PM 26.6 °F 22.6 °F 21.2 °F 80% 29.98 in 10.0 mi WNW 3.5 mph - N/A   Clear
6:35 PM 28.4 °F 24.6 °F 19.4 °F 69% 29.99 in 10.0 mi NW 3.5 mph - N/A   Clear
6:55 PM 28.4 °F - 19.4 °F 69% 30.01 in 10.0 mi Calm Calm - N/A   Clear
7:15 PM 28.4 °F 24.6 °F 19.4 °F 69% 30.01 in 10.0 mi NW 3.5 mph - N/A   Clear
7:35 PM 26.6 °F - 19.4 °F 74% 30.03 in 10.0 mi Calm Calm - N/A   Clear
7:55 PM 28.4 °F 23.3 °F 19.4 °F 69% 30.03 in 10.0 mi NW 4.6 mph - N/A   Clear
8:15 PM 28.4 °F - 19.4 °F 69% 30.03 in 10.0 mi Calm Calm - N/A   Clear
8:35 PM 26.6 °F - 17.6 °F 69% 30.04 in 10.0 mi Calm Calm - N/A   Clear
8:55 PM 24.8 °F - 21.2 °F 86% 30.05 in 10.0 mi Calm Calm - N/A   Clear
9:15 PM 26.6 °F - 19.4 °F 74% 30.05 in 10.0 mi Calm Calm - N/A   Clear
9:35 PM 26.6 °F - 19.4 °F 74% 30.06 in 10.0 mi Calm Calm - N/A   Clear
9:55 PM 24.8 °F - 19.4 °F 80% 30.07 in 10.0 mi Calm Calm - N/A   Clear
10:15 PM 23.0 °F - 19.4 °F 86% 30.07 in 10.0 mi Calm Calm - N/A   Clear
10:35 PM 23.0 °F - 21.2 °F 93% 30.09 in 10.0 mi Calm Calm - N/A   Clear
10:55 PM 21.2 °F - 17.6 °F 86% 30.10 in 10.0 mi Calm Calm - N/A   Clear
11:15 PM 21.2 °F - 17.6 °F 86% 30.10 in 10.0 mi Calm Calm - N/A   Clear
11:35 PM 21.2 °F - 17.6 °F 86% 30.10 in 10.0 mi Calm Calm - N/A   Clear
11:55 PM 21.2 °F - 19.4 °F 93% 30.10 in 10.0 mi Calm Calm - N/A   Clear